AirNav   Bose ProFlight Aviation Headset
 
 1632 users online  

6M7 Marianna/Lee County Airport-Steve Edwards Field
Marianna, Arkansas, USA

GOING TO MARIANNA?


FAA INFORMATION EFFECTIVE 13 SEPTEMBER 2018

Location

FAA Identifier: 6M7
Lat/Long: 34-46-57.9000N / 090-48-35.9000W
34-46.965000N / 090-48.598333W
34.7827500 / -90.8099722
(estimated)
Elevation: 219.1 ft. / 66.8 m (surveyed)
Variation: 00E (2010)
From city: 3 miles W of MARIANNA, AR
Time zone: UTC -5 (UTC -6 during Standard Time)
Zip code: 72360

Airport Operations

Airport use: Open to the public
Activation date: 08/1973
Control tower: no
ARTCC: MEMPHIS CENTER
FSS: JONESBORO FLIGHT SERVICE STATION
NOTAMs facility: JBR (NOTAM-D service available)
Attendance: MON-FRI DAYLIGHT HOURS, ALL SAT SR-1200
Wind indicator: lighted
Segmented circle: yes
Lights: ACTVT MIRL RY 18/36 - CTAF.
Beacon: white-green (lighted land airport)
Operates sunset to sunrise.

Airport Communications

CTAF/UNICOM: 122.8
  • APCH/DEP SVC PRVDD BY MEMPHIS ARTCC ON FREQS 135.3/335.8 (BRINKLEY RCAG).

Nearby radio navigation aids

VOR radial/distance  VOR name  Freq  Var
UJMr331/14.1MARVELL VOR/DME109.6001E
GQEr202/37.6GILMORE VOR/DME113.0004E

Airport Services

Fuel available: 100LL
FOR FUEL OTHER HRS CALL 870-295-3485.
Parking: tiedowns
Bottled oxygen: NONE
Bulk oxygen: NONE

Runway Information

Runway 18/36

Dimensions: 4021 x 75 ft. / 1226 x 23 m
Surface: asphalt, in fair condition
Runway edge lights: medium intensity
RUNWAY 18  RUNWAY 36
Latitude: 34-47.296520N34-46.633822N
Longitude: 090-48.591007W090-48.604522W
Elevation: 218.6 ft.219.0 ft.
Traffic pattern: leftleft
Runway heading: 181000
Markings: nonprecision, in good conditionnonprecision, in good condition
Visual slope indicator: 2-light PAPI on left (3.00 degrees glide path)2-light PAPI on left (3.00 degrees glide path)
Touchdown point: yes, no lightsyes, no lights
Obstructions: 70 ft. tree, 700 ft. from runway, 475 ft. right of centerline, 7:1 slope to clear30 ft. tree, 1250 ft. from runway, 525 ft. left of centerline, 35:1 slope to clear

Airport Ownership and Management from official FAA records

Ownership: Publicly-owned
Owner: CITY OF MARIANNA
16 COURT ST
MARIANNA, AR 72360
Phone 870-295-6089
Manager: DOUG GIBSON
BOX 478
MARIANNA, AR 72360
Phone 870-295-3485

Airport Operational Statistics

Aircraft based on the field: 8
Single engine airplanes: 7
Multi engine airplanes: 1
    
Aircraft operations: avg 69/day *
84% local general aviation
16% transient general aviation
<1% military
* for 12-month period ending 28 February 2018

Additional Remarks

RY 36 75 FT UNLGTD PLINE 2300 FT SOUTH OF THLD.
NUMEROUS AGRICULTURE OPS FEB-OCT.

Instrument Procedures

NOTE: All procedures below are presented as PDF files. If you need a reader for these files, you should download the free Adobe Reader.

NOT FOR NAVIGATION. Please procure official charts for flight.
FAA instrument procedures published for use from 13 September 2018 at 0901Z to 11 October 2018 at 0900Z.

 
IAPs - Instrument Approach Procedures
RNAV (GPS) RWY 18   download (192KB)
RNAV (GPS) RWY 36   download (192KB)
NOTE: Special Take-Off Minimums/Departure Procedures apply   download (132KB)

Other nearby airports with instrument procedures:

KHEE - Thompson-Robbins Airport (14 nm SE)
M36 - Frank Federer Memorial Airport (19 nm W)
KDRP - Delta Regional Airport (20 nm N)
KUTA - Tunica Municipal Airport (24 nm E)
KCKM - Fletcher Field Airport (33 nm SE)
 
Loc | Ops | Rwys | IFR | FBO | Links
Com | Nav | Svcs | Stats | Notes


 
Area around 6M7 (Marianna/Lee County Airport-Steve Edwards Field)
 
Road maps at: MapQuest Bing Google
 
Aerial photo
WARNING: Photo may not be current or correct
Aerial photo of 6M7 (Marianna/Lee County Airport-Steve Edwards Field)
Photo courtesy of colliervillephoto.com
Photo taken 03-Mar-2010

Do you have a better or more recent aerial photo of Marianna/Lee County Airport-Steve Edwards Field that you would like to share? If so, please send us your photo.

 
Sectional chart

 
Airport distance calculator
Flying to Marianna/Lee County Airport-Steve Edwards Field? Find the distance to fly.

From to 6M7

Sunrise and sunset
Times for 26-Sep-2018
 Local
(UTC-5)
 Zulu
(UTC)
Morning civil twilight06:3011:30
Sunrise06:5511:55
Sunset18:5423:54
Evening civil twilight19:1900:19

Current date and time
Zulu (UTC)  26-Sep-2018 15:07:44
Local (UTC-5)  26-Sep-2018 10:07:44
 
METAR
KUTA 
24nm E 
261455Z AUTO 00000KT 10SM 22/22 A3007 RMK AO2 TSNO
KCKM 
33nm SE 
261455Z AUTO 00000KT 4SM BR SCT005 BKN025 OVC065 24/24 A3006 RMK A01 P0001
KAWM 
35nm NE 
260553Z AUTO 19006KT 10SM SCT045 25/23 A3000 RMK AO2 SLP154 T02500228 10272 20244 403220244 50001 $
KSGT 
39nm W 
261456Z AUTO 02013KT 10SM -RA OVC013 22/21 A3009 RMK AO2 RAB38 SLP188 P0001 60002 T02220206 53018
KMEM 
44nm NE 
261454Z 32004KT 10SM FEW013 BKN023 BKN070 24/22 A3006 RMK AO2 SLP174 60000 T02440222 51011
TAF
KMEM 
44nm NE 
261408Z 2614/2718 26006KT P6SM VCSH SCT015 BKN060 TEMPO 2614/2616 BKN015 FM261600 02013G20KT P6SM OVC015 FM270200 03013KT P6SM OVC025 FM270600 04009KT P6SM VCSH FEW030 BKN040
NOTAMs
Click for the latest NOTAMs
NOTAMs are issued by the DoD/FAA and will open in a separate window not controlled by AirNav.

 

 
 

Would you like to see your business listed on this page?

 If your business provides an interesting product or service to pilots, flight crews, aircraft, or users of the Marianna/Lee County Airport-Steve Edwards Field, you should consider listing it here.  To start the listing process, click on the button below
 
Add a business
 

Other Pages about Marianna/Lee County Airport-Steve Edwards Field

Update a link
 
Copyright © AirNav, LLC. All rights reserved. Privacy Policy  Contact